TimeMDT,TemperatureF,Dew PointF,Humidity,Sea Level PressureIn,VisibilityMPH,Wind Direction,Wind SpeedMPH,Gust SpeedMPH,PrecipitationIn,Events,Conditions,WindDirDegrees,DateUTC
12:01 AM,30.2,26.6,86,29.77,9.0,WNW,3.5,-,0.00,,Scattered Clouds,290,2013-03-18 06:01:00
12:52 AM,28.9,23.0,78,29.81,10.0,West,11.5,-,0.00,,Partly Cloudy,280,2013-03-18 06:52:00
1:52 AM,28.9,21.0,72,29.81,10.0,West,19.6,-,N/A,,Clear,280,2013-03-18 07:52:00
2:52 AM,28.0,21.0,75,29.82,10.0,West,10.4,-,N/A,,Mostly Cloudy,270,2013-03-18 08:52:00
3:52 AM,26.1,19.9,78,29.82,10.0,WSW,8.1,-,N/A,,Clear,250,2013-03-18 09:52:00
4:52 AM,26.1,19.9,78,29.83,10.0,West,12.7,18.4,N/A,,Clear,260,2013-03-18 10:52:00
5:52 AM,18.0,14.0,84,29.92,10.0,NNE,10.4,-,N/A,,Partly Cloudy,20,2013-03-18 11:52:00
6:52 AM,15.1,10.9,84,29.98,10.0,NE,3.5,-,N/A,,Scattered Clouds,50,2013-03-18 12:52:00
7:01 AM,15.8,10.4,79,29.89,10.0,Calm,Calm,-,N/A,,Mostly Cloudy,0,2013-03-18 13:01:00
7:23 AM,14.0,10.4,86,29.90,9.0,Calm,Calm,-,N/A,,Scattered Clouds,0,2013-03-18 13:23:00
7:52 AM,15.1,10.0,80,30.03,10.0,Calm,Calm,-,N/A,,Clear,0,2013-03-18 13:52:00
8:52 AM,18.0,10.9,74,30.04,10.0,Calm,Calm,-,N/A,,Mostly Cloudy,0,2013-03-18 14:52:00
9:25 AM,17.6,12.2,79,29.94,10.0,Calm,Calm,-,N/A,,Partly Cloudy,0,2013-03-18 15:25:00
9:52 AM,21.0,10.9,65,30.05,10.0,Calm,Calm,-,N/A,,Clear,0,2013-03-18 15:52:00
10:52 AM,21.0,12.9,71,30.05,10.0,Calm,Calm,-,0.06,,Clear,0,2013-03-18 16:52:00
11:52 AM,26.1,18.0,71,30.04,10.0,Variable,5.8,-,N/A,,Clear,0,2013-03-18 17:52:00
12:52 PM,30.0,21.0,69,30.02,10.0,Calm,Calm,-,N/A,,Partly Cloudy,0,2013-03-18 18:52:00
1:52 PM,36.0,19.9,52,29.98,10.0,WNW,10.4,17.3,N/A,,Partly Cloudy,290,2013-03-18 19:52:00
2:52 PM,39.9,16.0,38,29.94,10.0,West,9.2,-,N/A,,Clear,280,2013-03-18 20:52:00
3:52 PM,37.9,15.1,39,29.94,9.0,Variable,5.8,16.1,N/A,,Partly Cloudy,0,2013-03-18 21:52:00
4:52 PM,39.9,14.0,35,29.94,10.0,NNE,6.9,16.1,N/A,,Clear,30,2013-03-18 22:52:00
5:52 PM,36.0,10.9,36,29.99,10.0,NNE,13.8,-,N/A,,Clear,30,2013-03-18 23:52:00
6:52 PM,33.1,10.9,40,30.01,10.0,East,5.8,-,N/A,,Partly Cloudy,90,2013-03-19 00:52:00
7:52 PM,30.9,14.0,50,30.02,10.0,East,5.8,-,N/A,,Mostly Cloudy,90,2013-03-19 01:52:00
8:52 PM,28.0,16.0,61,30.06,10.0,Calm,Calm,-,N/A,,Overcast,0,2013-03-19 02:52:00
9:52 PM,27.0,15.1,61,30.06,10.0,SE,3.5,-,N/A,,Mostly Cloudy,130,2013-03-19 03:52:00
11:52 PM,27.0,15.1,61,30.04,10.0,Calm,Calm,-,N/A,,Clear,0,2013-03-19 05:52:00